Tracking 30922 objects as of 2-Jul-2025
HD Live streaming from Space Station
objects crossing your sky now

H-2 R/B(2)

Track H-2 R/B(2) now!
10-day predictions


NORAD ID: 23523
Int'l Code: 1995-011C
Perigee: 253.5 km
Apogee: 24,723.4 km
Inclination: 25.2 °
Period: 429.6 minutes
Semi major axis: 18859 km
RCS: 24.9995 m2 (large)
Launch date: March 18, 1995
Source: Japan (JPN)
Launch site: TANEGASHIMA SPACE CENTER (TNSTA)

Note: This is a ROCKET BODY
Your satellite tracking list
Your tracking list is empty




NASA's NSSDC Master Catalog

Two Line Element Set (TLE):
1 23523U 95011C   25182.22982633  .00010832  00000-0  15064-2 0  9996
2 23523  25.1607 162.0103 6487427 308.2464   9.3346  3.35204144322363
Source of the keplerian elements: AFSPC